AMOS-4

Last updated on Thu Nov 21 2024 00:02:42 GMT+0000 (Coordinated Universal Time)

1 39237U 13045A 24325.12341330 .00000008 00000+0 00000+0 0 9996 2 39237 0.0239 271.5314 0002107 353.1081 264.4547 1.00269992 41201
UTC large
Height (km)
Speed (km/s)
/
Latitude / Longitude
Inclination (degrees)
Orbital Period (minutes)
Azimuth
Elevation
Range (km)
Doppler Factor

Next 0 passes for location: London (51.5072 / 0.1276)

Sorry there are no passes over London.